Regional Weather Roundup
Issued by NWS

Home | Current Version | Previous Version | Text Only | Print | Product List | Glossary On
Versions: 1 2 3 4 5 6 7 8 9 10 11 12 13 14 15 16 17 18 19 20 21 22 23 24 25 26 27 28 29 30 31 32 33 34 35 36 37 38 39 40 41 42 43 44 45 46 47 48 49 50
000
ASUS42 KFFC 231510
RWRGA
WEATHER ROUNDUP FOR GEORGIA
NATIONAL WEATHER SERVICE PEACHTREE CITY GA
1100 AM EDT WED MAY 23 2018

NOTE: "FAIR" INDICATES FEW OR NO CLOUDS BELOW 12,000 FEET WITH NO
SIGNIFICANT WEATHER AND/OR OBSTRUCTIONS TO VISIBILITY.

* = USE WITH CAUTION. THE STATIONS MARKED WITH AN ASTERISK MAY NOT
REPORT WEATHER SUCH AS PRECIPITATION, FOG, OR THUNDER AND ARE NOT
QUALITY CONTROLLED BY NWS.

THE REMARK "TC" DENOTES TEMPERATURE READING IN DEGREES CELSIUS.

GAZ001>058-231600-
NORTH GEORGIA

CITY           SKY/WX    TMP DP  RH WIND       PRES   REMARKS
ATLANTA        LGT RAIN  74  68  81 N8        30.11S
ATHENS         CLOUDY    70  70 100 E7        30.12S
CHAMBLEE       LGT RAIN  71  68  90 NE6       30.11S FOG
PEACHTREE CITY CLOUDY    75  70  84 W3        30.11S
ROME           PTSUNNY   78  70  76 VRB3      30.10S
WEST ATLANTA   CLOUDY    73  72  96 NE3       30.11R
GAINESVILLE    CLOUDY    72  71  97 SE7       30.14S
CARTERSVILLE   CLOUDY    76  70  82 N6        30.12S


CITY           SKY/WX    TMP DP  RH WIND       PRES   REMARKS
DALTON*        FAIR      75  70  83 CALM      30.13S
LAWRENCEVILLE* HVY RAIN  70  68  94 E7        30.12S VSB 1
MARIETTA       PTSUNNY   73  68  83 E2        30.11F
KENNESAW*      CLOUDY    73  68  84 VRB3      30.12S
CANTON*        PTSUNNY   73  68  83 CALM      30.14S
BLAIRSVILLE*   PTSUNNY   70  66  87 SE3       30.16F
$$

GAZ059>098-102>109-231600-
CENTRAL GEORGIA

CITY           SKY/WX    TMP DP  RH WIND       PRES   REMARKS
AUGUSTA-BUSH   PTSUNNY   77  72  84 CALM      30.11F
AUGUSTA-DANIEL PTSUNNY   77  71  82 S3        30.13S
COLUMBUS       HVY RAIN  71  69  93 CALM      30.11R VSB 1/2
MACON          LGT RAIN  73  71  93 SW9       30.11R
ROBINS AFB     LGT RAIN  73  72  97 SW5       30.10S


CITY           SKY/WX    TMP DP  RH WIND       PRES   REMARKS
LAGRANGE*      CLOUDY    77  73  88 CALM      30.12S
SYLVANIA*      FAIR      81  71  71 CALM      30.13F
MILLEDGEVILLE* CLOUDY    75  73  94 CALM      30.11F
$$

GAZ099>101-110>166-231600-
SOUTH GEORGIA

CITY           SKY/WX    TMP DP  RH WIND       PRES   REMARKS
SAVANNAH       FAIR      84  70  62 S9        30.13S
VALDOSTA       LGT RAIN  73  71  93 VRB3      30.14R FOG
ALMA           PTSUNNY   80  70  71 SW6       30.13S
ST SIMONS      FAIR      82  69  64 S8        30.13S
FT STEWART     PTSUNNY   81  68  64 S8        30.12R
ALBANY         PTSUNNY   81  71  71 S9        30.12F
HUNTER AFB     FAIR      82  69  62 SW7       30.11R
MOODY AFB      HVY RAIN  73  70  89 W12       30.13R
BRUNSWICK      FAIR      82  66  57 SW7       30.14S


CITY           SKY/WX    TMP DP  RH WIND       PRES   REMARKS
BAINBRIDGE*    FAIR      81  75  83 W6        30.11S
MOULTRIE*      PTSUNNY   79  70  73 W9        30.13S
VIDALIA*       PTSUNNY   79  68  69 SW8       30.13S
WAYCROSS*      CLOUDY    82  72  71 S9        30.13S
DOUGLAS*       PTSUNNY   77  70  78 SW5       30.14F
$$



USA.gov is the U.S. government's official web portal to all federal, state and local government web resources and services.